Previsão horária em Alicun

Hoje, 19 Junho, Sábado

Tempo Temperatura Precipitação Vento Pressão Humidade
00:00 +19°C° 0 mm 1 m/s 697 mmHg 57%
01:00 +17°C° 0 mm 2 m/s 697 mmHg 61%
02:00 +16°C° 0 mm 2 m/s 696 mmHg 64%
03:00 +16°C° 0 mm 2 m/s 696 mmHg 68%
04:00 +16°C° 0 mm 1 m/s 696 mmHg 69%
05:00 +15°C° 0 mm 1 m/s 696 mmHg 70%
06:00 +15°C° 0 mm 1 m/s 696 mmHg 72%
07:00 +16°C° 0 mm 1 m/s 696 mmHg 67%
08:00 +18°C° 0 mm 1 m/s 696 mmHg 62%
09:00 +19°C° 0 mm 1 m/s 696 mmHg 57%
10:00 +20°C° 0 mm 2 m/s 696 mmHg 54%
11:00 +21°C° 0 mm 2 m/s 696 mmHg 51%
12:00 +23°C° 0 mm 2 m/s 696 mmHg 47%
13:00 +23°C° 0.2 mm 2 m/s 696 mmHg 48%
14:00 +22°C° 0.2 mm 3 m/s 696 mmHg 49%
15:00 +22°C° 0.2 mm 3 m/s 696 mmHg 49%
16:00 +22°C° 0.2 mm 3 m/s 696 mmHg 49%
17:00 +22°C° 0.2 mm 3 m/s 696 mmHg 50%
18:00 +22°C° 0.2 mm 3 m/s 696 mmHg 50%
19:00 +21°C° 0 mm 2 m/s 696 mmHg 53%
20:00 +20°C° 0 mm 2 m/s 696 mmHg 56%
21:00 +20°C° 0 mm 1 m/s 697 mmHg 59%
22:00 +19°C° 0 mm 1 m/s 696 mmHg 60%
23:00 +19°C° 0 mm 1 m/s 696 mmHg 60%

Amanhã, 20 Junho, Domingo

Tempo Temperatura Precipitação Vento Pressão Humidade
00:00 +18°C° 0 mm 1 m/s 696 mmHg 61%
01:00 +18°C° 0 mm 1 m/s 696 mmHg 65%
02:00 +16°C° 0 mm 1 m/s 695 mmHg 69%
03:00 +15°C° 0 mm 1 m/s 695 mmHg 74%
04:00 +15°C° 0 mm 1 m/s 695 mmHg 74%
05:00 +15°C° 0 mm 1 m/s 695 mmHg 75%
06:00 +15°C° 0 mm 1 m/s 695 mmHg 76%
07:00 +17°C° 0 mm 2 m/s 695 mmHg 69%
08:00 +18°C° 0 mm 2 m/s 695 mmHg 62%
09:00 +19°C° 0 mm 3 m/s 696 mmHg 55%
10:00 +21°C° 0 mm 3 m/s 696 mmHg 49%
11:00 +22°C° 0 mm 4 m/s 696 mmHg 43%
12:00 +25°C° 0 mm 4 m/s 696 mmHg 36%
13:00 +25°C° 0 mm 5 m/s 696 mmHg 35%
14:00 +26°C° 0 mm 5 m/s 696 mmHg 34%
15:00 +27°C° 0 mm 5 m/s 695 mmHg 33%
16:00 +26°C° 0 mm 6 m/s 695 mmHg 36%
17:00 +24°C° 0 mm 6 m/s 695 mmHg 38%
18:00 +24°C° 0 mm 6 m/s 695 mmHg 41%
19:00 +22°C° 0 mm 5 m/s 695 mmHg 48%
20:00 +21°C° 0 mm 4 m/s 696 mmHg 55%
21:00 +19°C° 0 mm 3 m/s 696 mmHg 62%
22:00 +19°C° 0 mm 2 m/s 696 mmHg 67%
23:00 +18°C° 0 mm 2 m/s 695 mmHg 72%

Depois de amanhã, 21 Junho, Segunda-feira

Tempo Temperatura Precipitação Vento Pressão Humidade
00:00 +17°C° 0 mm 2 m/s 695 mmHg 77%
01:00 +18°C° 0 mm 1 m/s 695 mmHg 81%
02:00 +16°C° 0 mm 1 m/s 695 mmHg 84%
03:00 +16°C° 0 mm 1 m/s 694 mmHg 88%
04:00 +16°C° 0 mm 1 m/s 695 mmHg 87%
05:00 +16°C° 0 mm 1 m/s 695 mmHg 86%
06:00 +16°C° 0 mm 1 m/s 695 mmHg 86%
07:00 +18°C° 0 mm 1 m/s 695 mmHg 76%
08:00 +20°C° 0 mm 1 m/s 695 mmHg 66%
09:00 +20°C° 0 mm 2 m/s 695 mmHg 56%
10:00 +23°C° 0 mm 2 m/s 695 mmHg 48%
11:00 +25°C° 0 mm 3 m/s 695 mmHg 40%
12:00 +26°C° 0 mm 4 m/s 695 mmHg 32%
13:00 +27°C° 0 mm 4 m/s 695 mmHg 30%
14:00 +27°C° 0 mm 5 m/s 695 mmHg 27%
15:00 +28°C° 0 mm 6 m/s 695 mmHg 25%
16:00 +27°C° 0 mm 6 m/s 695 mmHg 25%
17:00 +26°C° 0 mm 6 m/s 695 mmHg 24%
18:00 +24°C° 0 mm 6 m/s 695 mmHg 24%
19:00 +23°C° 0 mm 5 m/s 695 mmHg 27%
20:00 +21°C° 0 mm 4 m/s 695 mmHg 31%
21:00 +20°C° 0 mm 2 m/s 696 mmHg 34%
22:00 +19°C° 0 mm 2 m/s 696 mmHg 37%
23:00 +18°C° 0 mm 2 m/s 695 mmHg 40%

22 Junho, Terça-feira

Tempo Temperatura Precipitação Vento Pressão Humidade
00:00 +18°C° 0 mm 2 m/s 695 mmHg 43%
01:00 +18°C° 0 mm 1 m/s 695 mmHg 48%
02:00 +16°C° 0 mm 1 m/s 695 mmHg 53%
03:00 +15°C° 0 mm 1 m/s 695 mmHg 58%
04:00 +16°C° 0 mm 1 m/s 695 mmHg 59%
05:00 +16°C° 0 mm 1 m/s 695 mmHg 61%
06:00 +16°C° 0 mm 1 m/s 695 mmHg 62%
07:00 +18°C° 0 mm 1 m/s 695 mmHg 56%
08:00 +20°C° 0 mm 1 m/s 696 mmHg 51%
09:00 +21°C° 0 mm 1 m/s 696 mmHg 45%
10:00 +23°C° 0 mm 2 m/s 696 mmHg 41%
11:00 +24°C° 0 mm 2 m/s 696 mmHg 36%
12:00 +26°C° 0 mm 3 m/s 696 mmHg 31%
13:00 +26°C° 0 mm 3 m/s 696 mmHg 30%
14:00 +27°C° 0 mm 4 m/s 696 mmHg 28%
15:00 +28°C° 0 mm 4 m/s 695 mmHg 27%
16:00 +27°C° 0 mm 4 m/s 695 mmHg 28%
17:00 +27°C° 0 mm 4 m/s 695 mmHg 29%
18:00 +26°C° 0 mm 5 m/s 695 mmHg 30%
19:00 +25°C° 0 mm 4 m/s 696 mmHg 33%
20:00 +24°C° 0 mm 3 m/s 696 mmHg 35%
21:00 +21°C° 0 mm 2 m/s 696 mmHg 37%
22:00 +21°C° 0 mm 2 m/s 696 mmHg 40%
23:00 +20°C° 0 mm 2 m/s 696 mmHg 42%

23 Junho, Quarta-feira

Tempo Temperatura Precipitação Vento Pressão Humidade
00:00 +19°C° 0 mm 2 m/s 696 mmHg 44%
01:00 +19°C° 0 mm 2 m/s 696 mmHg 49%
02:00 +19°C° 0 mm 1 m/s 696 mmHg 54%
03:00 +18°C° 0 mm 1 m/s 695 mmHg 59%
04:00 +18°C° 0 mm 1 m/s 696 mmHg 59%
05:00 +19°C° 0 mm 1 m/s 696 mmHg 60%
06:00 +17°C° 0 mm 0 m/s 696 mmHg 61%
07:00 +20°C° 0 mm 1 m/s 696 mmHg 54%
08:00 +22°C° 0 mm 1 m/s 697 mmHg 48%
09:00 +23°C° 0 mm 1 m/s 697 mmHg 41%
10:00 +25°C° 0 mm 2 m/s 697 mmHg 36%
11:00 +26°C° 0 mm 2 m/s 697 mmHg 31%
12:00 +27°C° 0 mm 2 m/s 697 mmHg 26%
13:00 +28°C° 0 mm 2 m/s 697 mmHg 25%
14:00 +29°C° 0 mm 2 m/s 697 mmHg 23%
15:00 +30°C° 0 mm 2 m/s 697 mmHg 22%
16:00 +29°C° 0 mm 3 m/s 697 mmHg 24%
17:00 +29°C° 0 mm 3 m/s 697 mmHg 26%
18:00 +29°C° 0 mm 3 m/s 697 mmHg 28%
19:00 +27°C° 0 mm 3 m/s 697 mmHg 35%
20:00 +25°C° 0 mm 2 m/s 698 mmHg 42%
21:00 +24°C° 0 mm 1 m/s 698 mmHg 49%
22:00 +23°C° 0 mm 2 m/s 698 mmHg 54%
23:00 +21°C° 0 mm 2 m/s 698 mmHg 59%

24 Junho, Quinta-feira

Tempo Temperatura Precipitação Vento Pressão Humidade
00:00 +21°C° 0 mm 2 m/s 698 mmHg 64%
01:00 +20°C° 0 mm 2 m/s 698 mmHg 66%
02:00 +20°C° 0 mm 2 m/s 698 mmHg 68%
03:00 +19°C° 0 mm 2 m/s 698 mmHg 71%
04:00 +20°C° 0 mm 2 m/s 698 mmHg 70%
05:00 +20°C° 0 mm 2 m/s 699 mmHg 69%
06:00 +20°C° 0 mm 2 m/s 699 mmHg 68%
07:00 +22°C° 0 mm 3 m/s 699 mmHg 58%
08:00 +24°C° 0 mm 3 m/s 700 mmHg 48%
09:00 +26°C° 0 mm 4 m/s 700 mmHg 38%
10:00 +28°C° 0 mm 4 m/s 700 mmHg 34%
11:00 +29°C° 0 mm 4 m/s 700 mmHg 30%
12:00 +30°C° 0 mm 5 m/s 700 mmHg 26%
13:00 +32°C° 0 mm 5 m/s 700 mmHg 25%
14:00 +33°C° 0 mm 5 m/s 700 mmHg 24%
15:00 +33°C° 0 mm 5 m/s 700 mmHg 23%
16:00 +32°C° 0 mm 5 m/s 699 mmHg 26%
17:00 +32°C° 0 mm 5 m/s 699 mmHg 29%
18:00 +30°C° 0 mm 5 m/s 699 mmHg 32%
19:00 +28°C° 0 mm 4 m/s 700 mmHg 39%
20:00 +26°C° 0 mm 3 m/s 700 mmHg 46%
21:00 +24°C° 0 mm 3 m/s 700 mmHg 52%
22:00 +22°C° 0 mm 3 m/s 700 mmHg 54%
23:00 +23°C° 0 mm 2 m/s 700 mmHg 57%
Mostrar mais